Location: Mason
(37.5237°N, 89.2543°W)
Time: 08:16:40
(UTC+00:00)

Cosmos 1689 Rocket - Pass Details

Date: 24 January 2021
Orbit: 352 x 366 km, 97.5° (Epoch: 08 March)

Event Time Altitude Azimuth Distance (km) Brightness Sun altitude
Rises 12:11:08 0° 188° (S) 2,214 6.0 -11.1°
Reaches altitude 10° 12:13:14 10° 200° (SSW) 1,368 4.8 -10.7°
Maximum altitude 12:15:48 28° 262° (W) 737 3.0 -10.2°
Drops below altitude 10° 12:18:23 10° 324° (NW) 1,373 4.4 -9.7°
Enters shadow 12:18:30 - 325° (NW) 1,420 4.5 -9.7°
